Regional Weather Roundup
Issued by NWS Jackson, KY

Home | Current Version | Previous Version | Text Only | Print | Product List | Glossary On
Versions: 1 2 3 4 5 6 7 8 9 10 11 12 13 14 15 16 17 18 19 20 21 22 23 24 25 26 27 28 29 30 31 32 33 34 35 36 37 38 39 40 41 42 43 44 45 46 47 48 49 50
000
ASUS43 KJKL 301219
RWRJKL

EAST KENTUCKY HOURLY WEATHER ROUNDUP
NATIONAL WEATHER SERVICE JACKSON KY
800 AM EDT WED JUL 30 2014

NOTE: "FAIR" INDICATES FEW OR NO CLOUDS BELOW 12,000 FEET WITH
NO SIGNIFICANT WEATHER AND/OR OBSTRUCTIONS TO VISIBILITY.

* THESE REPORTS ARE NOT UNDER NWS QUALITY CONTROL AND MAY NOT
  REPORT WEATHER SUCH AS PRECIPITATION AND FOG.

KYZ079-080-083-085-087-088-110-112-115-119-120-301300
...EASTERN KENTUCKY...

CITY           SKY/WX    TMP DP  RH WIND       PRES   REMARKS
JACKSON        PTSUNNY   55  54  96 CALM      30.13R FOG
6HR MIN TEMP:  52; 6HR MAX TEMP:  58;

LONDON         SUNNY     55  52  89 SE3       30.13R
6HR MIN TEMP:  54; 6HR MAX TEMP:  57;

SOMERSET*      FOG       54  54 100 CALM      30.13S VSB<1/4
MONTICELLO*    SUNNY     55  54  97 CALM      30.14S
6HR MIN TEMP:  52; 6HR MAX TEMP:  56;

WILLIAMSBURG*  CLOUDY    54  54 100 SE6       30.13
MIDDLESBORO*   CLOUDY    53  53  99 CALM      30.15S FOG
6HR MIN TEMP:  53; 6HR MAX TEMP:  54;

HARLAN APT*    CLOUDY    52  52 100 MISG      30.15S VSB<1/4
HAZARD APT*    FOG       54  54 100 CALM      30.14  VSB 0
BLACK MTN*       N/A     52  46  82 CALM        N/A
PIKEVILLE APT* FOG       54  54 100 S5        30.13R VSB 0
BIG SANDY*     CLOUDY    55  55  99 SW3       30.12R FOG
6HR MIN TEMP:  54; 6HR MAX TEMP:  57;

MOREHEAD APT*    N/A     61  57  88 CALM      30.13R
$$

KYZ035-036-041-042-044-050-067-078-099-301300
...CENTRAL KENTUCKY...

CITY           SKY/WX    TMP DP  RH WIND       PRES   REMARKS
MT STERLING*   CLOUDY    59  54  82 SW6       30.12S
FLEMING/MASON* SUNNY     60  55  86 SW6       30.10S
DANVILLE*      SUNNY     57  55  94 S5        30.13R
RICHMOND*      SUNNY     59  54  82 SW3       30.11S
LEXINGTON      CLOUDY    61  55  81 S6        30.11R
6HR MIN TEMP:  58; 6HR MAX TEMP:  61;

FRANKFORT      MOSUNNY   59  56  89 SW5       30.09R
6HR MIN TEMP:  56; 6HR MAX TEMP:  59;

$$

KYZ091>093-OHZ055-061-077-WVZ005-015-034-035-042-301300
...SOUTHERN OHIO/WEST VIRGINIA...

CITY           SKY/WX    TMP DP  RH WIND       PRES   REMARKS
COVINGTON      PTSUNNY   62  58  86 SW5       30.07S
COLUMBUS       SUNNY     60  54  80 S5        30.05R
DAYTON         PTSUNNY   60  57  89 SW9       30.06S
WILMINGTON     SUNNY     59  55  87 SW5       30.07S
HUNTINGTON     SUNNY     56  55  97 S5        30.09R FOG
CHARLESTON     MOSUNNY   56  56 100 CALM      30.10R FOG
PINEVILLE*     FOG       56  56 100 MISG      30.19R VSB 1/4
BECKLEY        SUNNY     54  52  93 S5        30.14S
BLUEFIELD      SUNNY     56  52  86 W3        30.16S
$$

VAZ002-007-008-TNZ017-027-036-066-071-301300
...SOUTHWEST VIRGINIA/EAST TENNESSEE...

CITY           SKY/WX    TMP DP  RH WIND       PRES   REMARKS
WISE*          SUNNY     54  54 100 CALM      30.16S
JONESVILLE*    FOG       48  48 100 CALM      30.16S VSB<1/4
ABINGDON*      SUNNY     56  54  93 CALM      30.16R
BRISTOL        MOSUNNY   54  52  93 CALM      30.15R FOG
KNOXVILLE      MOSUNNY   57  55  93 NE3       30.11R
OAK RIDGE      SUNNY     57  54  89 CALM      30.14R
CROSSVILLE     SUNNY     54  51  90 CALM      30.15R
NASHVILLE      PTSUNNY   59  56  89 S3        30.11S
$$

...KEY TO REMARKS...
VSB - VISIBILITY IN MILES
WCI - WIND CHILL INDEX
HX  - HEAT INDEX

$$


USA.gov is the U.S. government's official web portal to all federal, state and local government web resources and services.